Savannah-Hilton Head International Airport

Airport
ICAO code: 
KSAV
Summary
ICAO Region: 
NAM
Territory: 
Location: 
Savannah, Georgia,
Coordinates: 
Aerial View: 
32° 7' 43.707" N, 81° 12' 15.547" W
Metar
Observation
KSAV 020853Z AUTO 00000KT 10SM CLR 07/04 A3012 RMK AO2 SLP197 T00670044 55004
Station
Savannah, Savannah International Airport
Date/Time
2021-12-02 08:53:00
Wind direction
Wind speed
00 kts
Lowest cloud amount
n/a
Temperature
6.7°C
Dew point
4.4°C
Humidity
85%
Weather condition
n/a

Description

Savannah-Hilton Head International Airport is a public and military (ANG) use airport located 13 km northwest of the central business district of Savannah, a city in Chatham County, Georgia. It has been formerly known as Savannah International Airport, Travis Field and Chatham Field.

Climatology

Humid “subtropical” climate (Köppen climate classification Cfa) - characterized by hot, humid summers and cool winters. Significant amounts of precipitation occur in all seasons in most areas.

Runways

Designator Length Width Surface Rops
1/19 2134 46 CONC-G Yes/Yes
10/28 2850 46 CONC-G Yes/Yes
Airport map: 
Aerial View: 

SKYbrary Partners:

Safety knowledge contributed by: